Wind_Speed
5 4 4 4 3 4 4 4 4 3 3 3 3 3 3 3 2 2 2 2 1 1 1 1 1 2 2 3 2 2 3 3 4 4 5 5 5 5 5 5 5 5 5
5 4 3 3 3 2 2 2 2 2 2 2 2 2 2 1 2 2 2 2 2 2 1 1 2 2 3 3 3 3 4 4 5 5 6 7 7 7 7 7 7 7 7
4 3 3 3 2 2 1 1 1 1 0 0 0 0 0 1 0 1 1 2 3 3 3 3 3 3 3 4 4 5 5 5 6 7 7 8 8 9 9 9 9 9 9
3 3 3 2 2 2 1 1 0 0 1 1 2 2 2 2 2 2 2 3 4 4 4 4 4 5 5 5 6 6 7 7 7 8 8 8 9 10 10 11 11 12 12
3 3 3 2 2 2 2 2 2 2 2 2 2 2 3 3 4 4 4 4 5 5 5 6 6 7 7 7 7 8 8 8 8 8 9 10 10 10 11 12 13 13 13
3 3 3 2 2 2 2 2 3 3 4 4 4 4 4 5 6 6 6 6 7 7 7 7 8 8 8 8 9 9 9 9 10 10 11 11 11 12 12 13 13 14 15
3 4 4 3 3 4 4 4 5 5 5 5 6 6 7 7 7 7 8 8 8 8 9 9 10 9 10 10 11 11 11 11 11 12 12 13 13 14 14 14 15 15 16
4 4 4 4 5 5 6 6 7 7 7 7 8 8 8 8 9 9 9 10 10 10 10 11 11 11 12 12 12 12 12 13 13 14 15 15 15 15 16 16 16 17 17
5 5 6 6 6 7 8 8 8 8 9 9 9 9 10 10 10 11 11 11 12 12 12 12 12 13 13 13 14 14 14 14 15 15 16 16 16 17 17 18 18 18 19
7 7 8 8 8 9 9 10 9 10 10 11 11 11 11 11 11 12 12 12 12 12 13 13 13 13 14 15 15 15 16 16 17 17 18 17 18 18 18 19 20 21 21
8 9 9 9 9 10 10 11 11 10 11 11 11 12 12 12 12 12 12 12 13 13 13 14 15 15 15 15 16 16 17 18 19 19 19 19 19 20 20 20 21 21 22
9 9 9 10 10 10 10 11 10 11 11 11 11 12 12 13 12 13 13 13 14 14 14 14 15 15 15 15 16 17 18 18 19 20 20 20 20 20 21 22 22 22 23
9 10 10 10 11 11 11 11 11 11 11 11 11 12 13 13 14 14 14 14 15 15 15 15 16 17 17 17 17 18 19 19 20 20 21 21 22 22 23 23 24 24 24
10 10 10 10 11 11 11 11 11 11 11 11 11 12 12 13 13 14 15 15 15 15 16 16 16 17 18 18 19 19 20 20 21 21 22 22 23 24 24 25 26 26 27
10 10 10 10 10 10 11 11 11 11 11 11 12 12 13 13 13 14 14 14 15 15 15 16 17 18 18 19 19 20 20 20 21 22 22 23 24 24 25 26 27 27 28
10 10 10 10 10 11 11 11 11 11 11 11 12 12 13 13 14 14 14 15 15 15 16 17 17 18 19 20 20 21 21 21 21 22 23 24 24 25 26 27 27 27 28
9 9 9 9 10 10 11 11 11 11 11 11 11 12 12 13 13 14 14 14 15 16 17 17 19 19 20 20 21 21 22 22 23 24 24 25 25 26 27 27 28 28 29
10 9 9 10 10 11 11 11 11 12 12 12 12 13 13 14 14 15 15 15 16 17 17 18 19 20 20 20 20 22 23 23 24 25 25 25 26 27 27 28 28 29 30
10 10 10 10 11 11 11 11 11 12 13 13 13 13 14 15 15 15 16 16 17 17 18 19 20 21 21 21 22 22 23 24 24 25 26 27 28 28 28 28 29 30 30
11 11 11 11 11 11 12 12 12 12 13 14 14 15 15 16 16 16 17 17 18 18 19 19 20 20 21 22 23 23 24 25 25 26 27 27 27 28 29 30 31 31 31
13 13 12 12 13 13 13 13 13 13 13 14 15 16 16 17 18 18 18 19 19 20 20 20 20 20 21 22 23 24 25 25 26 27 27 28 28 29 30 31 31 32 32
14 14 14 14 14 14 14 14 14 14 15 15 16 17 17 18 18 19 20 20 20 20 20 20 21 21 22 23 23 25 26 26 27 28 28 29 30 30 31 32 32 33 34
15 15 15 15 15 15 15 15 15 16 16 17 18 18 19 20 20 20 21 21 21 21 22 23 23 24 24 25 25 26 27 28 29 30 30 31 32 32 33 34 34 35 36
16 17 17 17 16 16 16 16 16 17 18 19 20 20 20 21 22 22 22 22 23 23 24 24 25 26 26 27 28 29 30 30 31 32 33 33 33 34 34 34 35 37 37
18 19 18 17 16 16 16 17 18 18 19 20 20 22 22 22 23 24 24 25 25 26 26 26 27 28 28 30 30 31 31 31 32 33 34 34 34 34 34 35 36 36 37
19 19 17 17 17 17 17 18 18 19 20 20 22 22 23 23 24 24 24 25 26 27 27 28 28 29 30 30 31 31 32 32 33 33 34 35 35 35 35 35 36 36 35
Wind_Direction
78 81 84 91 96 100 99 102 112 113 109 105 103 106 101 94 85 69 49 49 45 31 21 29 7 350 321 316 311 297 288 283 280 278 277 279 277 274 272 271 274 275 281
68 70 72 75 80 92 98 101 117 128 113 102 91 90 84 72 66 51 30 20 12 352 340 319 318 317 313 306 307 313 300 286 278 278 279 279 278 275 272 272 272 273 275
65 66 59 56 48 53 91 107 113 146 174 250 239 248 303 337 335 7 357 345 340 321 312 300 300 308 308 300 294 296 295 296 287 285 282 279 276 273 272 272 273 274 274
43 38 31 27 26 30 27 23 34 285 304 290 272 275 292 315 319 310 303 306 308 309 308 301 294 295 297 300 297 293 291 290 291 287 289 287 284 276 271 271 272 274 275
24 19 20 15 9 2 352 329 311 290 288 288 284 275 284 298 302 302 296 294 294 290 295 298 291 290 292 296 297 294 292 291 292 290 289 292 289 284 278 274 274 273 274
354 353 358 1 347 339 335 310 301 292 285 278 281 280 284 288 292 296 300 297 294 290 288 290 289 288 289 291 292 291 288 287 286 287 288 289 290 288 285 279 279 275 274
333 337 334 332 326 312 306 307 305 300 292 286 287 288 286 288 288 290 294 294 294 293 291 289 288 287 289 288 288 288 288 288 285 286 288 288 288 288 287 285 281 281 279
310 319 326 322 319 311 302 301 302 302 300 295 293 290 292 290 285 286 288 291 291 288 288 287 289 289 288 289 292 291 290 293 291 288 287 287 287 286 286 286 283 284 282
307 310 311 307 305 307 304 295 296 298 298 299 297 295 294 291 288 286 287 287 287 285 286 286 287 289 284 286 288 289 291 295 294 292 291 291 293 290 286 286 284 284 284
303 307 308 305 303 305 307 305 296 297 296 298 298 296 293 290 290 288 287 287 286 285 287 287 289 289 287 285 285 289 290 291 292 291 290 290 291 290 287 288 286 285 284
301 303 306 306 306 307 306 308 307 307 305 302 297 296 296 294 295 295 292 289 288 289 289 288 287 290 291 289 288 289 290 291 292 291 291 292 290 288 287 287 286 286 284
304 302 302 303 305 306 309 313 314 310 307 304 299 297 297 296 297 297 295 290 286 286 288 288 289 291 293 291 290 288 290 291 291 292 291 291 291 289 287 288 286 285 286
306 302 300 302 303 302 305 310 312 312 312 310 307 305 304 300 296 296 296 293 291 288 288 289 291 292 292 290 289 289 290 290 290 291 290 291 291 291 290 289 287 287 286
306 306 305 304 303 303 304 306 310 313 313 311 310 309 310 308 303 300 297 292 292 291 290 290 292 294 293 291 290 291 291 291 291 290 290 290 291 291 291 290 288 288 287
307 308 308 306 302 304 306 309 311 312 312 313 313 311 310 308 305 304 301 294 293 293 294 293 294 296 296 295 294 293 293 292 294 295 293 293 293 292 292 291 289 288 288
312 312 311 308 309 310 310 312 312 312 312 311 312 313 315 315 310 308 304 298 294 295 296 296 295 296 295 296 296 294 296 298 299 299 297 296 294 294 292 292 291 290 290
318 315 314 320 320 317 313 310 311 311 311 312 316 318 317 317 319 318 315 310 304 300 299 300 303 301 299 298 296 296 299 300 300 299 297 296 296 296 295 294 292 291 290
318 318 318 319 320 319 317 311 307 308 310 313 315 315 314 315 314 316 315 313 311 306 304 303 303 303 303 302 301 301 301 302 301 300 299 297 297 297 297 297 296 294 293
320 318 317 317 318 319 320 319 314 309 311 313 314 317 316 315 314 312 314 314 314 310 308 304 302 302 304 304 302 302 302 302 302 301 300 298 297 296 297 297 297 296 295
316 314 313 315 315 316 318 321 323 321 318 314 313 316 316 315 315 315 314 314 314 312 310 308 304 304 303 304 302 303 304 303 302 302 301 300 299 298 297 296 296 295 294
312 308 311 313 314 313 312 313 317 319 320 317 314 315 314 315 315 316 316 316 316 315 313 313 310 307 306 306 304 305 305 305 305 305 304 304 303 300 297 298 298 297 296
309 307 308 309 310 311 310 310 310 312 313 315 316 317 316 315 315 314 314 314 315 315 314 313 309 308 307 306 304 306 306 306 306 307 306 306 306 305 304 301 300 299 299
308 305 306 306 307 308 307 307 309 310 312 312 312 313 314 314 313 312 312 314 314 314 313 311 309 307 307 305 304 305 305 305 304 304 305 305 304 304 303 302 302 302 301
310 307 305 303 302 303 304 305 307 310 311 311 312 313 313 312 312 311 310 311 312 311 309 307 306 306 305 304 304 305 305 305 305 305 305 305 304 304 303 303 302 302 301
310 308 306 301 300 300 302 304 306 308 310 311 312 313 314 314 314 313 312 311 311 310 308 307 307 306 305 304 305 306 306 306 306 306 306 305 304 304 304 303 303 303 303
310 308 307 303 298 299 301 303 306 308 309 310 311 312 314 315 316 315 313 312 311 310 309 308 308 307 306 306 306 306 307 307 306 306 306 305 305 305 305 305 305 304 303
Height
5904 5904 5904 5904 5904 5904 5905 5905 5905 5905 5906 5906 5906 5906 5906 5907 5907 5907 5907 5907 5907 5907 5907 5907 5907 5907 5907 5907 5907 5906 5906 5906 5906 5906 5906 5906 5906 5906 5906 5905 5905 5905 5905
5905 5905 5905 5906 5906 5906 5906 5906 5906 5906 5906 5907 5907 5907 5907 5907 5907 5907 5907 5907 5907 5907 5907 5907 5907 5907 5907 5906 5906 5906 5906 5906 5905 5905 5905 5905 5905 5904 5904 5904 5904 5904 5904
5906 5906 5906 5906 5906 5906 5907 5906 5906 5907 5907 5907 5907 5907 5907 5907 5907 5907 5907 5907 5907 5907 5907 5907 5907 5907 5906 5906 5905 5905 5905 5905 5904 5904 5903 5903 5903 5903 5903 5902 5902 5902 5902
5907 5907 5907 5907 5907 5907 5907 5907 5907 5907 5907 5907 5907 5907 5907 5907 5907 5907 5907 5907 5907 5907 5906 5906 5906 5906 5905 5905 5904 5904 5903 5903 5903 5902 5901 5901 5901 5900 5900 5900 5900 5900 5899
5908 5908 5907 5907 5907 5907 5907 5907 5907 5906 5906 5906 5906 5906 5906 5906 5906 5906 5906 5906 5906 5906 5905 5905 5905 5904 5904 5903 5903 5902 5902 5901 5901 5900 5900 5899 5899 5898 5898 5897 5897 5897 5896
5908 5908 5907 5907 5907 5907 5906 5906 5906 5906 5906 5906 5906 5905 5905 5905 5905 5905 5905 5904 5904 5904 5904 5903 5903 5902 5902 5901 5901 5900 5900 5899 5899 5898 5897 5897 5896 5896 5895 5894 5894 5893 5893
5908 5908 5907 5907 5907 5907 5906 5906 5905 5905 5905 5905 5905 5904 5904 5904 5904 5903 5903 5903 5902 5902 5901 5901 5900 5900 5899 5899 5898 5898 5898 5897 5896 5895 5895 5894 5893 5893 5892 5891 5891 5890 5889
5908 5907 5907 5906 5906 5906 5905 5905 5904 5904 5904 5903 5903 5903 5902 5903 5902 5901 5901 5901 5900 5900 5899 5899 5898 5897 5897 5896 5896 5895 5895 5894 5893 5892 5891 5891 5890 5889 5888 5887 5887 5886 5885
5907 5907 5906 5905 5905 5905 5904 5903 5903 5903 5902 5902 5901 5901 5901 5900 5899 5899 5898 5898 5897 5897 5896 5895 5895 5894 5893 5893 5892 5892 5891 5890 5889 5889 5888 5887 5886 5885 5884 5883 5882 5882 5881
5906 5906 5905 5904 5904 5903 5903 5902 5901 5900 5900 5899 5899 5898 5898 5897 5897 5896 5896 5895 5894 5893 5893 5892 5891 5890 5889 5888 5888 5887 5887 5886 5886 5885 5884 5882 5881 5880 5880 5879 5878 5877 5876
5905 5905 5904 5903 5902 5902 5901 5900 5899 5898 5898 5897 5896 5896 5895 5894 5894 5893 5892 5892 5891 5890 5890 5889 5888 5887 5886 5885 5884 5884 5883 5882 5881 5880 5879 5878 5877 5876 5875 5874 5873 5872 5870
5904 5903 5902 5901 5901 5900 5899 5898 5897 5896 5896 5895 5894 5893 5892 5892 5890 5890 5889 5888 5887 5887 5886 5886 5885 5884 5883 5882 5881 5880 5879 5878 5877 5876 5875 5873 5872 5871 5869 5868 5867 5866 5865
5902 5901 5900 5899 5899 5898 5897 5896 5896 5895 5893 5892 5891 5890 5889 5888 5887 5886 5885 5884 5883 5883 5882 5882 5881 5880 5879 5878 5876 5876 5875 5873 5872 5871 5870 5868 5867 5865 5864 5862 5861 5860 5858
5900 5899 5898 5897 5897 5896 5895 5894 5893 5892 5891 5890 5888 5887 5886 5885 5884 5883 5882 5881 5880 5879 5878 5878 5877 5876 5874 5873 5872 5871 5869 5868 5867 5865 5864 5863 5861 5860 5858 5856 5855 5853 5852
5898 5897 5896 5895 5895 5894 5893 5892 5891 5890 5889 5888 5886 5885 5883 5882 5881 5879 5878 5877 5877 5876 5875 5874 5873 5872 5870 5868 5866 5865 5864 5863 5862 5860 5858 5857 5855 5853 5852 5850 5848 5846 5844
5895 5895 5894 5894 5893 5892 5891 5890 5889 5888 5887 5885 5884 5882 5881 5879 5877 5876 5875 5874 5873 5872 5871 5870 5868 5867 5865 5864 5862 5860 5859 5858 5856 5854 5853 5851 5849 5847 5845 5843 5841 5839 5837
5894 5893 5892 5891 5890 5890 5888 5887 5886 5885 5884 5883 5881 5880 5878 5877 5875 5874 5872 5870 5869 5868 5866 5865 5863 5862 5860 5859 5857 5855 5854 5852 5850 5848 5846 5845 5843 5840 5838 5836 5834 5832 5830
5893 5892 5891 5890 5889 5888 5886 5885 5884 5883 5882 5881 5879 5878 5876 5874 5872 5870 5869 5867 5865 5863 5862 5861 5859 5857 5855 5854 5852 5850 5848 5846 5844 5842 5840 5838 5836 5833 5831 5829 5826 5824 5822
5891 5890 5889 5888 5887 5886 5884 5883 5881 5881 5880 5878 5877 5875 5873 5872 5870 5868 5866 5864 5861 5860 5858 5856 5854 5852 5850 5848 5847 5845 5843 5840 5838 5836 5833 5831 5828 5826 5823 5821 5818 5816 5813
5889 5888 5887 5886 5885 5884 5882 5881 5879 5878 5877 5875 5874 5872 5871 5869 5866 5864 5862 5860 5858 5855 5853 5852 5850 5847 5845 5843 5841 5838 5836 5834 5832 5830 5827 5824 5821 5818 5815 5813 5810 5808 5805
5887 5886 5885 5884 5883 5881 5880 5878 5877 5876 5874 5872 5871 5869 5867 5865 5863 5861 5859 5856 5854 5851 5849 5847 5845 5843 5840 5837 5835 5832 5830 5828 5825 5823 5820 5817 5814 5811 5808 5805 5802 5799 5796
5885 5884 5883 5881 5880 5878 5877 5876 5874 5873 5871 5869 5868 5866 5864 5862 5860 5857 5855 5852 5850 5847 5845 5842 5840 5837 5835 5832 5829 5827 5824 5822 5819 5816 5812 5809 5806 5803 5799 5796 5793 5789 5786
5882 5881 5880 5878 5877 5875 5874 5873 5871 5870 5868 5866 5864 5863 5860 5858 5856 5853 5851 5848 5845 5842 5840 5837 5835 5832 5829 5826 5823 5820 5817 5814 5811 5808 5805 5801 5798 5795 5791 5787 5783 5780 5776
5879 5878 5876 5875 5873 5872 5871 5869 5868 5866 5865 5863 5861 5859 5856 5854 5851 5849 5846 5844 5841 5838 5835 5832 5829 5826 5822 5820 5817 5814 5810 5806 5803 5799 5796 5793 5789 5786 5782 5778 5774 5771 5767
5876 5874 5872 5870 5869 5868 5867 5866 5864 5863 5861 5859 5857 5854 5852 5849 5846 5844 5841 5838 5835 5832 5829 5826 5823 5819 5816 5813 5809 5806 5802 5799 5795 5791 5787 5784 5780 5777 5773 5769 5765 5761 5757
5872 5870 5868 5866 5865 5864 5863 5862 5860 5859 5857 5855 5853 5850 5847 5844 5841 5839 5836 5833 5829 5826 5822 5819 5816 5812 5809 5805 5802 5798 5794 5790 5787 5783 5779 5775 5771 5768 5764 5760 5756 5752 5747